This is the latest recevied weather packets stored in our database for station/object PA3CPS. If no packets are shown the sender has not sent any weather packets the latest 10 day(s).
| Time | Temp. | Humidity | Pressure | Rain* | Wind** | Luminosity | Snow |
|---|---|---|---|---|---|---|---|
| 1778085020 | 11.67° C | 70% | 1009.5 hPa | 0 mm | - | 98 W/m² | - |
| 1778084718 | 11.67° C | 70% | 1009.4 hPa | 0 mm | - | 104 W/m² | - |
| 1778084417 | 11.67° C | 70% | 1009.3 hPa | 0 mm | - | 107 W/m² | - |
| 1778084116 | 11.67° C | 70% | 1009.5 hPa | 0 mm | - | 118 W/m² | - |
| 1778083814 | 11.67° C | 70% | 1009.5 hPa | 0 mm | - | 130 W/m² | - |
| 1778083515 | 11.67° C | 70% | 1009.3 hPa | 0 mm | - | 144 W/m² | - |
| 1778083216 | 11.67° C | 70% | 1009.4 hPa | 0 mm | - | 162 W/m² | - |
| 1778082913 | 11.67° C | 70% | 1009.4 hPa | 0 mm | - | 178 W/m² | - |
| 1778082610 | 11.67° C | 70% | 1009.4 hPa | 0 mm | - | 165 W/m² | - |
| 1778082310 | 11.67° C | 71% | 1009.3 hPa | 0 mm | - | 153 W/m² | - |
| 1778082008 | 11.67° C | 71% | 1009.5 hPa | 0 mm | - | 135 W/m² | - |
| 1778081707 | 11.67° C | 70% | 1009.3 hPa | 0 mm | - | 132 W/m² | - |
| 1778081405 | 11.67° C | 70% | 1009.3 hPa | 0 mm | - | 127 W/m² | - |
| 1778081105 | 11.67° C | 70% | 1009.3 hPa | 0 mm | - | 105 W/m² | - |
| 1778080803 | 11.67° C | 71% | 1009.2 hPa | 0 mm | - | 95 W/m² | - |
| 1778080505 | 11.67° C | 70% | 1009.2 hPa | 0 mm | - | 91 W/m² | - |
| 1778080197 | 11.67° C | 70% | 1009.2 hPa | 0 mm | - | 98 W/m² | - |
| 1778079897 | 11.67° C | 69% | 1009.1 hPa | 0 mm | - | 114 W/m² | - |
| 1778079594 | 11.67° C | 70% | 1009.1 hPa | 0 mm | - | 132 W/m² | - |
| 1778079290 | 11.67° C | 70% | 1009.1 hPa | 0 mm | - | 132 W/m² | - |
| 1778078991 | 11.67° C | 70% | 1009.2 hPa | 0 mm | - | 128 W/m² | - |
| 1778078687 | 11.67° C | 70% | 1009.1 hPa | 0 mm | - | 125 W/m² | - |
| 1778078385 | 11.67° C | 71% | 1009.1 hPa | 0 mm | - | 128 W/m² | - |
| 1778078083 | 11.67° C | 71% | 1009.2 hPa | 0 mm | - | 130 W/m² | - |
| 1778077782 | 11.67° C | 70% | 1009.1 hPa | 0 mm | - | 132 W/m² | - |
* Rain latest hour (hover to see other rain measurements)
** Current wind speed in m/s (hover to see current wind gust speed)